Regional Weather Roundup
Issued by NWS

Home | Current Version | Previous Version | Text Only | Print | Product List | Glossary On
Versions: 1 2 3 4 5 6 7 8 9 10 11 12 13 14 15 16 17 18 19 20 21 22 23 24 25 26 27 28 29 30 31 32 33 34 35 36 37 38 39 40 41 42 43 44 45 46 47 48 49 50
000
ASUS43 KBIS 271810
RWRND

NORTH DAKOTA REGIONAL WEATHER ROUNDUP
NATIONAL WEATHER SERVICE BISMARCK ND
1200 PM CST MON FEB 27 2017

NOTE: "FAIR" INDICATES FEW OR NO CLOUDS BELOW 12,000 FEET WITH NO
SIGNIFICANT WEATHER AND/OR OBSTRUCTIONS TO VISIBILITY.


NDZ001>003-009>011-017-271900-
NORTHWEST NORTH DAKOTA

CITY           SKY/WX    TMP DP  RH WIND       PRES   REMARKS
WILLISTON      LGT SNOW  13   6  74 NE12      29.84F WCI  -1
6HR MIN TEMP:  11; 6HR MAX TEMP:  13; 6HR PCP:  0.05;

MINOT          LGT SNOW  13   6  74 NW6       29.86S WCI   4
MINOT AFB      LGT SNOW  11   6  77 NW6       29.86S WCI   2
$$

NDZ018>021-031>035-040>046-271900-
SOUTHWEST NORTH DAKOTA

CITY           SKY/WX    TMP DP  RH WIND       PRES   REMARKS
BISMARCK       PTSUNNY   23  17  78 NE13      29.81F WCI  11
6HR MIN TEMP:  11; 6HR MAX TEMP:  23;

DICKINSON      CLOUDY    18  14  84 NE15      29.71S WCI   4
GARRISON         N/A     16  10  77 NE10      29.83F WCI   4
6HR MIN TEMP:  12; 6HR MAX TEMP:  16; 6HR PCP:  0.09;

HETTINGER ARPT CLOUDY    24  20  84 E7        29.71R WCI  16
$$

NDZ004>008-012>016-024-026-027-054-271900-
NORTHEAST NORTH DAKOTA

CITY           SKY/WX    TMP DP  RH WIND       PRES   REMARKS
GRAND FORKS    CLOUDY    23  14  68 SW3       29.92R
GRND FRKS AFB  MOSUNNY   23  15  69 SW6       29.92R WCI  16
DEVILS LAKE    LGT SNOW  15  11  83 N8        29.89R FOG     WCI   4
$$

NDZ022-023-025-028>030-036>039-047>053-271900-
SOUTHEAST NORTH DAKOTA

CITY           SKY/WX    TMP DP  RH WIND       PRES   REMARKS
FARGO          CLOUDY    30  18  60 CALM      29.89F
6HR MIN TEMP:  17; 6HR MAX TEMP:  30;

JAMESTOWN      CLOUDY    24  17  74 E7        29.83F WCI  16
$$




USA.gov is the U.S. government's official web portal to all federal, state and local government web resources and services.